Terminal Aerodrome Forecast
Issued by NWS

Home | Current Version | Previous Version | Text Only | Print | Product List | Glossary Off
Versions: 1 2 3 4 5 6 7 8 9 10 11 12 13 14 15 16 17 18 19 20 21 22 23 24 25 26 27 28 29 30 31

431
FTUS43 KLOT 222104 AAC
TAFORD
TAF AMD
KORD 222104Z 2221/2324 19015G22KT 6SM BR SCT012 BKN018
     FM222300 17009KT P6SM VCSH BKN020 BKN050
      TEMPO 2223/2302 3SM -SHRA
     FM230200 25010KT 5SM BR VCSH BKN018 OVC030
     FM231100 32015G22KT P6SM VCSH OVC020 PROB30 2311/2314 1SM -SN
      OVC007=

USA.gov is the U.S. government's official web portal to all federal, state and local government web resources and services.